Location: Mentone
(34.5413°N, 85.5351°W)
Time: 19:39:46
(UTC-06:00)

Uosat F - Visible Passes

Search period start: 06 March 2015 00:00
Search period end: 16 March 2015 01:00
Orbit: 752 x 761 km, 98.7° (Epoch: 06 March)

Date Brightness Start Highest point End Pass type
(mag) Time Alt. Az. Time Alt. Az. Time Alt. Az.
06 Mar 11.3 04:21:54 10° NNE 04:26:57 72° ESE 04:31:58 10° S visible
07 Mar 13.0 03:43:17 10° NE 03:47:32 28° E 03:51:51 10° SSE visible
07 Mar 11.9 05:21:59 10° NNW 05:26:17 28° WNW 05:30:29 10° SW visible
08 Mar 14.1 04:07:20 10° E 04:07:48 10° E 04:08:39 10° E visible
08 Mar 11.0 05:42:09 10° N 05:47:12 71° WNW 05:52:11 10° SSW visible
09 Mar 12.1 05:03:05 10° NNE 05:07:54 44° E 05:12:42 10° S visible
10 Mar 13.7 04:25:08 10° NE 04:28:20 17° E 04:31:44 10° SE visible
10 Mar 11.4 06:02:36 10° N 06:07:23 44° WNW 06:12:06 10° SW visible
11 Mar 11.3 05:23:09 10° NNE 05:28:12 73° ESE 05:33:13 10° S visible
12 Mar 13.0 04:44:31 10° NE 04:48:47 28° E 04:53:07 10° SSE visible
12 Mar 12.0 06:23:15 10° NNW 06:27:32 28° WNW 06:31:42 10° SW visible
13 Mar 14.1 04:08:23 10° E 04:09:03 10° E 04:10:05 10° E visible
13 Mar 11.0 05:43:25 10° N 05:48:26 70° WNW 05:53:25 10° SSW visible
14 Mar 12.1 05:04:19 10° NNE 05:09:09 45° E 05:13:57 10° S visible
15 Mar 13.7 04:26:20 10° NE 04:29:34 18° E 04:33:00 10° SE visible
15 Mar 11.4 06:03:51 10° N 06:08:37 43° WNW 06:13:20 10° SW visible
